Location: Jackson Park
(37.2862°N, 79.9123°W)
Time: 02:03:57
(UTC+00:00)

Tiros 1 despin weight - Pass Details

Date: 19 May 2026
Orbit: 554 x 591 km, 48.2° (Epoch: 6 June)

Event Time Altitude Azimuth Distance (km) Brightness Sun altitude
Rises 10:31:25 0° 280° (W) 2,760 ? 3.5°
Reaches altitude 10° 10:34:07 10° 296° (WNW) 1,857 ? 3.9°
Maximum altitude 10:37:25 22° 347° (NNW) 1,261 ? 4.6°
Drops below altitude 10° 10:40:43 10° 39° (NE) 1,844 ? 5.2°
Sets 10:43:23 0° 55° (NE) 2,736 ? 5.7°
